DLH594 DNAA-DNPO

Flight info

Callsign DLH594
Flight time 0h 40m
Altitude 32000
Route IKVAD1Q IKVAD DCT IVBUV UV456 BORMO
Aircraft A343/H-SDE2E3FGHIJ3J5M1P2RWXYZ/LB1D1

Departure

Time 2026-04-27 15:55
Airport Nnamdi Azikiwe International Airport (DNAA)

Arrival

Time 2026-04-27 16:35
Airport Port Harcourt International Airport (DNPO)
Time Latitude Longitude Altitude Speed Heading
2026-04-27 15:06 9.00406 7.26927 1132 ft 0 kts 20°
2026-04-27 15:44 9.00394 7.26922 1132 ft 4 kts 14°
2026-04-27 15:44 9.00370 7.26920 1132 ft 4 kts 343°
2026-04-27 15:44 9.00354 7.26930 1136 ft 4 kts 274°
2026-04-27 15:44 9.00353 7.26937 1142 ft 1 kts 251°
2026-04-27 15:48 9.00353 7.26936 1142 ft 1 kts 251°
2026-04-27 15:48 9.00347 7.26915 1134 ft 5 kts 256°
2026-04-27 15:49 9.00419 7.26844 1132 ft 9 kts 330°
2026-04-27 15:49 9.00478 7.26811 1137 ft 10 kts 333°
2026-04-27 15:49 9.00548 7.26785 1133 ft 11 kts 345°
2026-04-27 15:49 9.00622 7.26755 1138 ft 12 kts 321°
2026-04-27 15:50 9.00672 7.26687 1138 ft 13 kts 299°
2026-04-27 15:50 9.00718 7.26614 1138 ft 9 kts 308°
2026-04-27 15:50 9.00773 7.26599 1138 ft 8 kts 12°
2026-04-27 15:50 9.00827 7.26628 1138 ft 10 kts 33°
2026-04-27 15:51 9.00892 7.26673 1140 ft 13 kts 34°
2026-04-27 15:51 9.00982 7.26736 1140 ft 17 kts 36°
2026-04-27 15:51 9.01081 7.26806 1142 ft 17 kts 35°
2026-04-27 15:51 9.01180 7.26876 1144 ft 18 kts 35°
2026-04-27 15:52 9.01281 7.26948 1143 ft 18 kts 35°
2026-04-27 15:52 9.01386 7.27022 1146 ft 20 kts 34°
2026-04-27 15:52 9.01505 7.27104 1146 ft 21 kts 34°
2026-04-27 15:52 9.01626 7.27186 1148 ft 21 kts 33°
2026-04-27 15:53 9.01743 7.27273 1149 ft 21 kts 38°
2026-04-27 15:53 9.01859 7.27352 1148 ft 17 kts 25°
2026-04-27 15:53 9.01936 7.27344 1148 ft 10 kts 323°
2026-04-27 15:53 9.01978 7.27285 1149 ft 10 kts 302°
2026-04-27 15:54 9.01984 7.27240 1148 ft 4 kts 240°
2026-04-27 15:54 9.01947 7.27211 1148 ft 24 kts 218°
2026-04-27 15:54 9.01568 7.26942 1148 ft 108 kts 214°
2026-04-27 15:54 9.00747 7.26368 1183 ft 173 kts 215°
2026-04-27 15:55 8.99711 7.25641 1804 ft 188 kts 215°
2026-04-27 15:55 8.98967 7.25116 2312 ft 198 kts 216°
2026-04-27 15:55 8.97234 7.24320 3033 ft 217 kts 186°
2026-04-27 15:55 8.95632 7.24341 3439 ft 245 kts 175°
2026-04-27 15:56 8.93889 7.24430 4118 ft 259 kts 178°
2026-04-27 15:56 8.92065 7.24445 5001 ft 265 kts 179°
2026-04-27 15:56 8.90196 7.24405 5886 ft 272 kts 180°
2026-04-27 15:56 8.88278 7.24331 6752 ft 278 kts 179°
2026-04-27 15:57 8.86326 7.24238 7647 ft 282 kts 178°
2026-04-27 15:57 8.84348 7.24135 8569 ft 286 kts 178°
2026-04-27 15:57 8.82367 7.24028 9491 ft 290 kts 176°
2026-04-27 15:57 8.80328 7.23916 10281 ft 298 kts 177°
2026-04-27 15:58 8.78184 7.23801 10677 ft 319 kts 178°
2026-04-27 15:58 8.75907 7.23675 11146 ft 334 kts 178°
2026-04-27 15:58 8.73554 7.23539 11810 ft 342 kts 178°
2026-04-27 15:58 8.71149 7.23398 12523 ft 348 kts 179°
2026-04-27 15:59 8.68748 7.23257 13259 ft 352 kts 179°
2026-04-27 15:59 8.66284 7.23115 13965 ft 357 kts 180°
2026-04-27 15:59 8.63781 7.22971 14624 ft 362 kts 180°
2026-04-27 15:59 8.61247 7.22824 15277 ft 366 kts 180°
2026-04-27 16:00 8.58686 7.22678 15988 ft 369 kts 181°
2026-04-27 16:00 8.56980 7.22580 16459 ft 372 kts 181°
2026-04-27 16:00 8.53499 7.22378 17421 ft 377 kts 182°
2026-04-27 16:00 8.50900 7.22229 18121 ft 380 kts 182°
2026-04-27 16:01 8.48236 7.22075 18712 ft 384 kts 182°
2026-04-27 16:01 8.45545 7.21920 19309 ft 388 kts 182°
2026-04-27 16:01 8.42831 7.21764 19896 ft 392 kts 182°
2026-04-27 16:01 8.40096 7.21607 20476 ft 396 kts 182°
2026-04-27 16:02 8.37335 7.21449 21065 ft 399 kts 182°
2026-04-27 16:02 8.34545 7.21290 21635 ft 403 kts 182°
2026-04-27 16:02 8.31732 7.21129 22210 ft 406 kts 182°
2026-04-27 16:02 8.28898 7.20967 22768 ft 410 kts 182°
2026-04-27 16:03 8.26071 7.20806 23298 ft 414 kts 182°
2026-04-27 16:03 8.23182 7.20641 23750 ft 417 kts 182°
2026-04-27 16:03 8.20269 7.20475 24184 ft 421 kts 182°
2026-04-27 16:03 8.17331 7.20308 24641 ft 424 kts 182°
2026-04-27 16:04 8.14375 7.20139 25088 ft 427 kts 182°
2026-04-27 16:04 8.11396 7.19968 25548 ft 430 kts 182°
2026-04-27 16:04 8.08401 7.19796 25993 ft 433 kts 182°
2026-04-27 16:04 8.05380 7.19621 26430 ft 436 kts 182°
2026-04-27 16:05 8.02339 7.19447 26858 ft 439 kts 182°
2026-04-27 16:05 7.99316 7.19273 27262 ft 442 kts 182°
2026-04-27 16:05 7.96233 7.19097 27691 ft 444 kts 182°
2026-04-27 16:05 7.93129 7.18920 28101 ft 447 kts 182°
2026-04-27 16:06 7.90009 7.18742 28479 ft 451 kts 182°
2026-04-27 16:06 7.86856 7.18562 28723 ft 457 kts 182°
2026-04-27 16:06 7.83664 7.18342 29086 ft 460 kts 184°
2026-04-27 16:06 7.80457 7.18035 29469 ft 463 kts 185°
2026-04-27 16:07 7.77275 7.17691 29873 ft 465 kts 185°
2026-04-27 16:07 7.74055 7.17334 30189 ft 468 kts 185°
2026-04-27 16:07 7.70799 7.16979 30465 ft 471 kts 185°
2026-04-27 16:07 7.67530 7.16632 30774 ft 473 kts 185°
2026-04-27 16:08 7.64281 7.16297 31104 ft 475 kts 185°
2026-04-27 16:08 7.60983 7.15963 31393 ft 477 kts 185°
2026-04-27 16:08 7.57656 7.15645 31657 ft 480 kts 184°
2026-04-27 16:08 7.54320 7.15346 31832 ft 481 kts 184°
2026-04-27 16:09 7.51017 7.15057 31852 ft 466 kts 184°
2026-04-27 16:09 7.44733 7.14507 31856 ft 450 kts 184°
2026-04-27 16:09 7.41603 7.14231 31858 ft 450 kts 184°
2026-04-27 16:10 7.29127 7.13119 31855 ft 451 kts 184°
2026-04-27 16:11 7.19751 7.12280 31853 ft 451 kts 184°
2026-04-27 16:12 7.10410 7.11445 31854 ft 451 kts 184°
2026-04-27 16:13 7.02075 7.10700 31850 ft 451 kts 184°
2026-04-27 16:13 6.92694 7.09765 31849 ft 451 kts 188°
2026-04-27 16:14 6.80292 7.08105 31744 ft 447 kts 184°
2026-04-27 16:15 6.74014 7.07676 30227 ft 458 kts 182°
2026-04-27 16:15 6.67694 7.07311 29056 ft 456 kts 182°
2026-04-27 16:16 6.61395 7.06949 28010 ft 449 kts 182°
2026-04-27 16:16 6.55193 7.06585 26975 ft 443 kts 182°
2026-04-27 16:17 6.49073 7.06111 25923 ft 439 kts 184°
2026-04-27 16:17 6.43020 7.05518 24878 ft 435 kts 185°
2026-04-27 16:18 6.37029 7.04937 23851 ft 430 kts 184°
2026-04-27 16:18 6.31131 7.04390 22771 ft 426 kts 184°
2026-04-27 16:19 6.28197 7.04122 22262 ft 421 kts 184°
2026-04-27 16:19 6.25288 7.03858 21754 ft 417 kts 184°
2026-04-27 16:20 6.16716 7.03081 20264 ft 407 kts 184°
2026-04-27 16:20 6.13904 7.02826 19774 ft 404 kts 184°
2026-04-27 16:20 6.08369 7.02336 18780 ft 399 kts 184°
2026-04-27 16:21 6.05601 7.02112 18284 ft 396 kts 184°
2026-04-27 16:21 5.97440 7.01444 16784 ft 386 kts 183°
2026-04-27 16:22 5.94811 7.01227 16313 ft 382 kts 183°
2026-04-27 16:22 5.89548 7.00793 15376 ft 376 kts 183°
2026-04-27 16:22 5.86945 7.00578 14884 ft 374 kts 182°
2026-04-27 16:23 5.84359 7.00366 14412 ft 372 kts 182°
2026-04-27 16:23 5.79302 7.00581 13449 ft 363 kts 163°
2026-04-27 16:23 5.76874 7.01254 12952 ft 359 kts 161°
2026-04-27 16:24 5.74480 7.01956 12483 ft 356 kts 161°
2026-04-27 16:24 5.69760 7.03333 11596 ft 349 kts 161°
2026-04-27 16:25 5.65138 7.04669 10707 ft 342 kts 161°
2026-04-27 16:25 5.60650 7.05961 10159 ft 326 kts 160°
2026-04-27 16:26 5.56434 7.07172 9917 ft 303 kts 160°
2026-04-27 16:26 5.52513 7.08302 9497 ft 290 kts 160°
2026-04-27 16:27 5.48561 7.09048 8848 ft 291 kts 177°
2026-04-27 16:27 5.42544 7.08702 7874 ft 287 kts 180°
2026-04-27 16:28 5.38596 7.08459 7122 ft 279 kts 180°
2026-04-27 16:28 5.34734 7.08229 5957 ft 277 kts 181°
2026-04-27 16:29 5.29069 7.07896 4999 ft 270 kts 182°
2026-04-27 16:30 5.25328 7.07550 4293 ft 270 kts 195°
2026-04-27 16:30 5.22109 7.06005 3886 ft 241 kts 209°
2026-04-27 16:31 5.18009 7.03729 3329 ft 214 kts 207°
2026-04-27 16:31 5.15493 7.02383 2818 ft 192 kts 208°
2026-04-27 16:32 5.13231 7.01177 2313 ft 175 kts 208°
2026-04-27 16:32 5.12188 7.00621 2097 ft 165 kts 207°
2026-04-27 16:33 5.10284 6.99606 1696 ft 146 kts 207°
2026-04-27 16:33 5.09423 6.99147 1532 ft 138 kts 207°
2026-04-27 16:33 5.08583 6.98701 1362 ft 135 kts 207°
2026-04-27 16:33 5.07744 6.98258 1217 ft 139 kts 207°
2026-04-27 16:34 5.06865 6.97797 1056 ft 145 kts 207°
2026-04-27 16:34 5.05961 6.97309 891 ft 148 kts 208°
2026-04-27 16:34 5.05061 6.96838 675 ft 143 kts 206°
2026-04-27 16:34 5.04209 6.96373 507 ft 137 kts 207°
2026-04-27 16:35 5.03377 6.95931 264 ft 132 kts 207°
2026-04-27 16:35 5.02585 6.95514 97 ft 125 kts 207°
2026-04-27 16:35 5.01516 6.94942 79 ft 41 kts 207°
2026-04-27 16:36 5.01276 6.94815 80 ft 37 kts 207°
2026-04-27 16:36 5.01057 6.94714 76 ft 32 kts 190°
2026-04-27 16:36 5.00873 6.94715 76 ft 16 kts 165°
2026-04-27 16:36 5.00831 6.94761 78 ft 0 kts 109°
2026-04-27 16:37 5.00830 6.94762 78 ft 0 kts 109°
2026-04-27 16:39 5.00828 6.94771 77 ft 5 kts 103°
2026-04-27 16:39 5.00822 6.94825 79 ft 9 kts 102°
2026-04-27 16:39 5.00798 6.94878 77 ft 3 kts 139°
2026-04-27 16:40 5.00785 6.94875 78 ft 0 kts 186°
2026-04-27 16:40 5.00772 6.94872 77 ft 5 kts 199°
2026-04-27 16:40 5.00736 6.94856 77 ft 0 kts 207°